Location: Thompson
(55.7500°N, 97.8670°W)
Time: 23:10:08
(UTC-05:00)

Daily predictions for brighter satellites

Satellite Brightness Start Highest point End
(mag) Time Altitude Azimuth Time Altitude Azimuth Time Altitude Azimuth
NOSS 2-3 (C) 4.2 23:11:22 10° SW 23:16:17 89° SE 23:22:25 10° NE
NOSS 3-1 (A) 4.3 23:11:25 10° WSW 23:17:30 62° NNW 23:24:37 10° NE
CARTOSAT-1 3.8 23:14:20 10° S 23:18:40 73° WSW 23:23:01 10° NNW
YAOGAN 11 4.3 23:17:40 10° SSE 23:22:16 84° ENE 23:26:50 10° NNW
SL-14 R/B 4.0 23:20:21 10° SSE 23:23:58 38° E 23:27:39 10° NNE
COSMOS 2406 3.8 23:18:42 10° NW 23:24:19 53° WSW 23:29:53 10° S
ALOS 2 4.4 23:22:04 10° ESE 23:25:30 23° ENE 23:28:59 10° N
Cosmos 2278 Rocket 3.3 23:21:27 10° SSE 23:26:03 26° ESE 23:30:40 10° NE
Cosmos 1726 3.0 23:24:32 10° NNW 23:28:10 47° W 23:31:48 10° S
CENTAUR R/B 3.2 23:23:24 10° NW 23:30:57 81° NE 23:39:23 10° SE
H-2A R/B 4.0 23:27:53 10° SW 23:32:15 25° W 23:36:43 10° NW
DMSP B5D2-2 4.5 23:31:48 10° NNE 23:37:04 69° WNW 23:42:15 10° SSW
Cosmos 1842 Rocket 4.1 23:33:24 10° NNW 23:37:40 57° W 23:41:55 10° S
Cosmos 1553 Rocket 4.0 23:32:01 10° SSW 23:38:05 85° W 23:44:14 10° N
KORONAS-FOTON 4.1 23:38:12 10° SSW 23:42:05 72° WNW 23:46:03 10° N
APEX 3.7 23:40:06 10° NW 23:42:45 34° WSW 23:45:45 10° S
SL-27 R/B 3.3 23:42:17 10° NNW 23:45:51 45° ENE 23:49:22 10° SE
Cosmos 1844 3.8 23:40:43 10° SSW 23:46:23 66° ESE 23:52:08 10° NE
Cosmos 2315 Rocket 4.4 23:42:10 10° SSE 23:48:13 51° E 23:54:22 10° NNE
Cosmos 1269 Rocket 4.4 23:43:25 10° SW 23:48:44 71° WNW 23:54:04 10° NNE
Cosmos 1076 Rocket 4.1 23:46:51 10° SSE 23:50:50 40° E 23:54:50 10° NNE
Cosmos 1844 Rocket 2.7 23:47:08 10° SSW 23:52:50 86° ESE 23:58:31 10° NE
